STARLINK-11630, 63111

Orbit data source: Space-Track

STARLINK-11630, 63111 is a payload satellite owned by SpaceX/Seattle (US) in LEO that was launched on Thu, 27 Feb 2025 UTC via an FALCON 9 launch vehicle from the Air Force Eastern Test Range (AFETR). Payload-class satellites include a variety of spacecraft equipped with specific instruments for various scientific and technological missions. These include communications satellites like Starlink; space stations such as the ISS; scientific satellites like the Hubble; Earth observation satellites from companies like Planet Labs, Umbra, and HawkEye 360; GPS; miniature CubeSats for education and research; and military/defense satellites.

Loading next visibility...
Identifier
63111, 2025-039H
Orbit
LEO
Last TLE update
14 hours ago
Origin
Manufacturer
SpaceX/Seattle
Mission
Operational Commercial Communications
Bus & Motor
STARLINK V2M, Unknown motor
Mass
730 kg wet, ~700 kg dry
Launch date (UTC)
2025-02-27 (2 months ago)
Launch vehicle
FALCON 9
Launch site
Air Force Eastern Test Range (AFETR)
Object type
Payload
Rocket body
Debris
Shape & HBR
Box + 2 Pan, 29 m
Radar Cross Section
36.964 m², Large (>1 m²)

Expand to show TLE details & history

TLE from 14 hours ago
0 STARLINK-11630
1 63111U 25039H   25128.70906845  .00000940  00000-0  82646-5 0  9992
2 63111  42.9984 276.6236 0001361 248.1979 111.8746 15.77860439 11632
Epoch: 2025-05-08T17:01Z
Definitive object data (Epoch: 2025-05-08T17:01:03.514Z)
Latitude
-0.00003°
Longitude
154.58325°
Altitude
336.615 km
Speed
7.708 km/s
True Right ascension
18h 26m 29s
True Declination
0° 00' 00"
Sunlit
Object was in full shadow at TLE epoch
Visualization TLE readout
Latitude
20.88711°
Longitude
175.09078°
Altitude
336.598 km
Speed
7.71 km/s
Apparent Right ascension
22h 45m 15s
Apparent Declination
-14° 09' 15"
Sunlit
Object is in daylight
Visualization observer readout
Local Sidereal Time
14:58:14
Azimuth
83.9° E
Elevation
-29.452°
Doppler factor
1
Orbital elements
Apogee altitude
339.406 km
Perigee altitude
337.577 km
Semi-major axis
6,716.629 km
Eccentricity
0.0001361
Inclination
42.9984°
RAAN
276.6236°
Arg. of periapsis
248.1979°
True anomaly
111.88907°
Mean anomaly
111.8746°
Eccentric anomaly
111.88184°
Mean motion
3.9429 °/min
BSTAR
0.0000082646
Orbital period
91.3 mins
Loading maneuver chart data...
Loading SW <> Apogee altitude chart data...
Loading historical data...
Loading historical data...
Loading historical data...
Loading historical data...
Loading historical data...
Loading historical data...
Loading historical data...

STARLINK-11630 Visibility forecast

Observer location: undefined°, undefined°

Span
Click to sort rows by Start time (UTC) header in descending order
Start Az.
Max El. time (UTC)
Max El. Az.
Max El.
End time (UTC)
End Az.
4 mins2025-05-09 12:58:20.935Z209.022° SW2025-05-09 13:00:20.935Z162.313° S23.673°2025-05-09 13:02:20.935Z99.5° ESE
4 mins2025-05-09 16:10:20.935Z298.627° NW2025-05-09 16:12:20.935Z24.179° NE32.994°2025-05-09 16:14:20.935Z74.697° E
4 mins2025-05-09 17:46:20.935Z283.212° WNW2025-05-09 17:47:20.935Z269.41° W39.618°2025-05-09 17:50:20.935Z114.977° SE
|